CW3999 Weather Reports


Display with metric or nautical units.
time (UTC)temp
F
wind
direction
speed
MPH
gust
MPH
rain 1hr
in
rain 24hr
in
rain mn
in
humidity
%
barometer
mb
20260504231103 76 304 0.0 0.0 0.00 0.00 0.00 52 1009.1
20260504230602 76 304 0.0 0.0 0.00 0.00 0.00 52 1009.1
20260504225603 77 305 0.0 0.0 0.00 0.00 0.00 52 1009.2
20260504225103 77 305 0.0 0.0 0.00 0.00 0.00 52 1009.3
20260504224602 76 305 0.0 0.0 0.00 0.00 0.00 52 1009.4
20260504224101 76 305 0.0 0.0 0.00 0.00 0.00 51 1009.4
20260504223604 76 305 0.0 0.0 0.00 0.00 0.00 51 1009.5
20260504222603 76 305 0.0 0.0 0.00 0.00 0.00 52 1009.6
20260504221602 76 305 0.0 0.0 0.00 0.00 0.00 52 1009.7
20260504221102 76 305 0.0 0.0 0.00 0.00 0.00 51 1009.8
20260504220603 75 305 0.0 0.0 0.00 0.00 0.00 50 1009.9
20260504215104 73 305 0.0 0.0 0.00 0.00 0.00 50 1010.0
20260504214559 73 305 0.0 0.0 0.00 0.00 0.00 52 1010.1
20260504214054 73 305 0.0 0.0 0.00 0.00 0.00 51 1010.1
20260504213047 73 305 0.0 0.0 0.00 0.00 0.00 50 1010.3
20260504212547 72 305 0.0 0.0 0.00 0.00 0.00 51 1010.3
20260504212043 72 305 0.0 0.0 0.00 0.00 0.00 50 1010.4
20260504211539 72 305 0.0 0.0 0.00 0.00 0.00 46 1010.4
20260504211032 71 305 0.0 0.0 0.00 0.00 0.00 50 1010.6
20260504210531 71 305 0.0 0.0 0.00 0.00 0.00 48 1010.7
20260504210029 71 305 0.0 0.0 0.00 0.00 0.00 47 1010.8
20260504205530 70 305 0.0 0.0 0.00 0.00 0.00 46 1010.8
20260504204530 69 305 0.0 0.0 0.00 0.00 0.00 45 1011.1
20260504204030 69 305 0.0 0.0 0.00 0.00 0.00 45 1011.1
20260504203530 69 305 0.0 0.0 0.00 0.00 0.00 45 1011.1
20260504203030 68 305 0.0 0.0 0.00 0.00 0.00 45 1011.2
20260504202531 69 305 0.0 0.0 0.00 0.00 0.00 47 1011.2
20260504202029 69 305 0.0 0.0 0.00 0.00 0.00 40 1011.2
20260504201529 69 305 0.0 0.0 0.00 0.00 0.00 44 1011.3
20260504201029 69 305 0.0 0.0 0.00 0.00 0.00 42 1011.4
20260504200529 68 305 0.0 0.0 0.00 0.00 0.00 45 1011.4
20260504200029 68 305 0.0 0.0 0.00 0.00 0.00 44 1011.5
20260504195530 67 305 0.0 0.0 0.00 0.00 0.00 38 1011.5
20260504195030 67 305 0.0 0.0 0.00 0.00 0.00 40 1011.6
20260504194529 67 305 0.0 0.0 0.00 0.00 0.00 37 1011.6
20260504194029 67 305 0.0 0.0 0.00 0.00 0.00 38 1011.5
20260504193530 66 305 0.0 0.0 0.00 0.00 0.00 29 1011.6
20260504193030 66 305 0.0 0.0 0.00 0.00 0.00 36 1011.7
20260504192532 65 305 0.0 0.0 0.00 0.00 0.00 32 1011.7
20260504191530 64 305 0.0 0.0 0.00 0.00 0.00 29 1011.8
20260504190529 64 312 0.0 0.0 0.00 0.00 0.00 12 1011.9
20260504190029 63 312 0.0 0.0 0.00 0.00 0.00 15 1011.9
20260504185531 62 312 0.0 0.0 0.00 0.00 0.00 15 1011.9
20260504185030 62 312 0.0 0.0 0.00 0.00 0.00 13 1012.0
20260504184529 62 312 0.0 0.0 0.00 0.00 0.00 16 1012.0
20260504184030 62 315 0.0 0.0 0.00 0.00 0.00 7 1012.1
20260504183530 62 315 0.0 0.0 0.00 0.00 0.00 8 1012.1
20260504183029 62 315 0.0 0.0 0.00 0.00 0.00 6 1012.0
20260504182528 62 315 0.0 0.0 0.00 0.00 0.00 5 1012.0
20260504182030 62 315 0.0 0.0 0.00 0.00 0.00 5 1011.9
20260504181523 62 315 0.0 0.0 0.00 0.00 0.00 2 1011.9
20260504181019 62 315 0.0 0.0 0.00 0.00 0.00 100 1012.0
20260504180514 61 315 0.0 0.0 0.00 0.00 0.00 100 1012.1
20260504180014 61 315 0.0 0.0 0.00 0.00 0.00 100 1012.1
20260504175003 61 315 0.0 0.0 0.00 0.00 0.00 100 1012.0
20260504174504 61 315 0.0 0.0 0.00 0.00 0.00 100 1012.0
20260504174001 61 315 0.0 0.0 0.00 0.00 0.00 100 1012.0
20260504173505 61 315 0.0 0.0 0.00 0.00 0.00 100 1012.0
20260504173005 60 315 0.0 0.0 0.00 0.00 0.00 100 1012.0
20260504172002 60 315 0.0 0.0 0.00 0.00 0.00 100 1011.9
20260504171502 60 316 0.0 0.0 0.00 0.00 0.00 100 1011.9
20260504171004 60 315 0.0 0.0 0.00 0.00 0.00 100 1011.9
20260504170503 60 315 0.0 0.0 0.00 0.00 0.00 100 1011.9
20260504160432 60 315 0.0 0.0 0.00 0.00 0.00 100 1011.8
20260504150430 58 315 0.0 0.0 0.00 0.00 0.00 100 1011.4
20260504140904 54 261 0.0 0.0 0.00 0.00 0.00 100 1010.7
20260504140401 54 261 0.0 0.0 0.00 0.00 0.00 100 1010.7
20260504130403 53 261 0.0 0.0 0.00 0.00 0.00 100 1009.8
20260504110329 58 261 0.0 0.0 0.00 0.00 0.00 100 1007.9
20260504100303 60 261 0.0 0.0 0.00 0.00 0.00 33 1007.1
20260504081730 66 261 0.0 0.0 0.00 0.00 0.00 55 1006.5
20260504081230 66 261 0.0 0.0 0.00 0.00 0.00 55 1006.5
20260504080730 67 261 0.0 0.0 0.00 0.00 0.00 55 1006.4
20260504080229 67 261 0.0 0.0 0.00 0.00 0.00 55 1006.5
20260504070222 70 261 0.0 0.0 0.00 0.00 0.00 52 1006.2
20260504050702 75 261 0.0 0.0 0.00 0.00 0.00 45 1005.8
20260504050202 75 261 0.0 0.0 0.00 0.00 0.00 44 1005.7
20260504044703 76 261 0.0 0.0 0.00 0.00 0.00 42 1005.7
20260504044204 76 261 0.0 0.0 0.00 0.00 0.00 44 1005.7
20260504043703 77 261 0.0 0.0 0.00 0.00 0.00 42 1005.7
20260504043203 77 261 0.0 0.0 0.00 0.00 0.00 43 1005.6
20260504042703 77 261 0.0 0.0 0.00 0.00 0.00 44 1005.7
20260504042204 78 261 0.0 0.0 0.00 0.00 0.00 43 1005.7
20260504041203 78 261 0.0 0.0 0.00 0.00 0.00 41 1005.6
20260504040702 78 261 0.0 0.0 0.00 0.00 0.00 40 1005.5
20260504040201 78 261 0.0 0.0 0.00 0.00 0.00 40 1005.4
20260504035702 79 261 0.0 0.0 0.00 0.00 0.00 39 1005.4
20260504035202 79 261 0.0 0.0 0.00 0.00 0.00 39 1005.3
20260504034702 80 261 0.0 0.0 0.00 0.00 0.00 39 1005.3
20260504034204 80 261 0.0 0.0 0.00 0.00 0.00 38 1005.2
20260504033702 81 261 0.0 0.0 0.00 0.00 0.00 38 1005.0
20260504032703 82 261 0.0 0.0 0.00 0.00 0.00 37 1004.9
20260504032204 82 261 0.0 0.0 0.00 0.00 0.00 37 1004.9
20260504031703 83 261 0.0 0.0 0.00 0.00 0.00 36 1004.8
20260504031203 84 261 0.0 0.0 0.00 0.00 0.00 35 1004.8
20260504030702 84 261 0.0 0.0 0.00 0.00 0.00 34 1004.8
20260504030201 85 258 0.0 0.0 0.00 0.00 0.00 34 1004.8
20260504025701 85 258 0.0 0.0 0.00 0.00 0.00 34 1004.7
20260504024702 85 258 0.0 0.0 0.00 0.00 0.00 33 1004.7
20260504024201 86 258 0.0 0.0 0.00 0.00 0.00 32 1004.6
20260504023704 86 258 0.0 0.0 0.00 0.00 0.00 32 1004.6
20260504022704 86 252 0.0 0.0 0.00 0.00 0.00 30 1004.6
20260504022203 86 252 0.0 0.0 0.00 0.00 0.00 29 1004.5
20260504021704 86 252 0.0 0.0 0.00 0.00 0.00 29 1004.6
20260504021202 87 252 0.0 0.0 0.00 0.00 0.00 31 1004.5
20260504020704 87 252 0.0 0.0 0.00 0.00 0.00 30 1004.6
20260504020204 87 252 0.0 0.0 0.00 0.00 0.00 30 1004.6
20260504015701 87 252 0.0 0.0 0.00 0.00 0.00 31 1004.6
20260504015203 87 252 0.0 0.0 0.00 0.00 0.00 31 1004.6
20260504014702 87 252 0.0 0.0 0.00 0.00 0.00 31 1004.7
20260504014202 87 252 0.0 0.0 0.00 0.00 0.00 29 1004.7
20260504013203 87 252 0.0 0.0 0.00 0.00 0.00 30 1004.7
20260504012704 87 252 0.0 0.0 0.00 0.00 0.00 31 1004.8
20260504012204 87 252 0.0 0.0 0.00 0.00 0.00 31 1004.8
20260504011706 87 252 0.0 0.0 0.00 0.00 0.00 29 1004.8
20260504011204 88 252 0.0 0.0 0.00 0.00 0.00 32 1004.9
20260504010703 88 252 0.0 0.0 0.00 0.00 0.00 30 1004.9
20260504010202 88 252 0.0 0.0 0.00 0.00 0.00 29 1005.0
20260504005705 89 252 0.0 0.0 0.00 0.00 0.00 34 1004.9
20260504005204 89 252 0.0 0.0 0.00 0.00 0.00 30 1005.0
20260504004704 89 252 0.0 0.0 0.00 0.00 0.00 30 1005.1
20260504004204 89 252 0.0 0.0 0.00 0.00 0.00 28 1005.2
20260504003203 89 252 0.0 0.0 0.00 0.00 0.00 25 1005.2
20260504002703 89 252 0.0 0.0 0.00 0.00 0.00 28 1005.2
20260504002204 89 252 0.0 0.0 0.00 0.00 0.00 26 1005.2
20260504001703 89 252 0.0 0.0 0.00 0.00 0.00 30 1005.2
20260504001204 89 252 0.0 0.0 0.00 0.00 0.00 30 1005.2
20260504000204 89 252 0.0 0.0 0.00 0.00 0.00 28 1005.2
20260503235658 89 252 0.0 0.0 0.00 0.00 0.00 27 1005.3
20260503235150 89 252 0.0 0.0 0.00 0.00 0.00 28 1005.3
20260503233630 89 251 0.0 0.0 0.00 0.00 0.00 25 1005.5
20260503233128 89 251 0.0 0.0 0.00 0.00 0.00 28 1005.6
20260503232130 89 251 0.0 0.0 0.00 0.00 0.00 28 1005.6